UAE4AQ OMDB-FAOR

Flight info

Callsign UAE4AQ
Flight time 7h 36m
Altitude 34000
Route ANVIX R401 GIDIS G783 UKRAG/N0505F330 L710 KUKDI/N0502F340 B400 VEDET UL437 MOGDU/N0496F360 UL437 ELAVA DCT BONAP UM310 VBR/N0489F380 UM307 EPSEK UZ33 NESAG UZ7 OKPIT OKPIT1D
Aircraft B77W/H-SDE1E2E3FGHIJ2J3J4J5M1RWXY/LB1D1

Departure

Time 2026-05-07 12:19
Airport Dubai International Airport (OMDB)

Arrival

Time 2026-05-07 19:55
Airport O.R. Tambo International Airport (FAOR)
Time Latitude Longitude Altitude Speed Heading
2026-05-07 11:48 25.24259 55.37518 27 ft 0 kts 211°
2026-05-07 12:04 25.24280 55.37532 26 ft 4 kts 211°
2026-05-07 12:04 25.24303 55.37547 25 ft 4 kts 211°
2026-05-07 12:04 25.24321 55.37559 24 ft 4 kts 192°
2026-05-07 12:05 25.24346 55.37557 25 ft 4 kts 150°
2026-05-07 12:05 25.24364 55.37539 25 ft 3 kts 121°
2026-05-07 12:05 25.24378 55.37514 26 ft 4 kts 121°
2026-05-07 12:05 25.24383 55.37504 26 ft 0 kts 121°
2026-05-07 12:12 25.24377 55.37516 27 ft 4 kts 121°
2026-05-07 12:12 25.24364 55.37540 27 ft 4 kts 121°
2026-05-07 12:13 25.24351 55.37563 27 ft 4 kts 121°
2026-05-07 12:13 25.24337 55.37588 27 ft 5 kts 121°
2026-05-07 12:13 25.24315 55.37629 27 ft 7 kts 121°
2026-05-07 12:13 25.24308 55.37676 27 ft 7 kts 66°
2026-05-07 12:14 25.24342 55.37711 27 ft 7 kts 36°
2026-05-07 12:14 25.24368 55.37730 27 ft 0 kts 33°
2026-05-07 12:14 25.24369 55.37731 27 ft 2 kts 33°
2026-05-07 12:14 25.24416 55.37765 27 ft 10 kts 34°
2026-05-07 12:15 25.24472 55.37809 27 ft 10 kts 36°
2026-05-07 12:15 25.24529 55.37852 27 ft 10 kts 34°
2026-05-07 12:15 25.24585 55.37894 27 ft 9 kts 33°
2026-05-07 12:15 25.24639 55.37933 27 ft 9 kts 33°
2026-05-07 12:16 25.24676 55.37960 27 ft 0 kts 33°
2026-05-07 12:16 25.24678 55.37961 27 ft 2 kts 33°
2026-05-07 12:16 25.24704 55.37980 27 ft 5 kts 33°
2026-05-07 12:17 25.24734 55.38001 27 ft 5 kts 33°
2026-05-07 12:17 25.24764 55.38023 27 ft 5 kts 33°
2026-05-07 12:17 25.24797 55.38025 27 ft 5 kts 328°
2026-05-07 12:17 25.24817 55.37999 27 ft 0 kts 303°
2026-05-07 12:18 25.24823 55.37989 27 ft 11 kts 303°
2026-05-07 12:18 25.24996 55.37686 27 ft 83 kts 301°
2026-05-07 12:18 25.25412 55.36923 27 ft 147 kts 302°
2026-05-07 12:18 25.26035 55.35788 48 ft 193 kts 303°
2026-05-07 12:19 25.26749 55.34523 581 ft 197 kts 301°
2026-05-07 12:19 25.27461 55.33242 1280 ft 189 kts 297°
2026-05-07 12:19 25.28146 55.32012 1875 ft 189 kts 298°
2026-05-07 12:19 25.28844 55.30758 2343 ft 194 kts 297°
2026-05-07 12:20 25.29264 55.29375 2719 ft 192 kts 266°
2026-05-07 12:20 25.28904 55.27975 3143 ft 190 kts 245°
2026-05-07 12:20 25.28326 55.26616 3449 ft 199 kts 246°
2026-05-07 12:20 25.27817 55.25396 3884 ft 200 kts 246°
2026-05-07 12:21 25.27231 55.24007 4287 ft 205 kts 246°
2026-05-07 12:21 25.26626 55.22579 4658 ft 209 kts 246°
2026-05-07 12:21 25.26004 55.21113 5037 ft 217 kts 246°
2026-05-07 12:21 25.25333 55.19530 5201 ft 236 kts 246°
2026-05-07 12:22 25.24546 55.17867 5520 ft 248 kts 232°
2026-05-07 12:22 25.23157 55.16755 5764 ft 260 kts 194°
2026-05-07 12:22 25.21345 55.16648 6121 ft 264 kts 173°
2026-05-07 12:22 25.19519 55.16967 6554 ft 267 kts 159°
2026-05-07 12:23 25.17995 55.18127 6865 ft 277 kts 126°
2026-05-07 12:23 25.17038 55.20013 7054 ft 287 kts 115°
2026-05-07 12:23 25.16127 55.22006 7645 ft 291 kts 117°
2026-05-07 12:23 25.15187 55.23983 8411 ft 290 kts 117°
2026-05-07 12:24 25.14245 55.25949 9128 ft 291 kts 118°
2026-05-07 12:24 25.13293 55.27936 9786 ft 294 kts 118°
2026-05-07 12:24 25.12331 55.29940 10399 ft 296 kts 119°
2026-05-07 12:24 25.11370 55.31939 11094 ft 295 kts 119°
2026-05-07 12:25 25.10419 55.33957 11792 ft 297 kts 116°
2026-05-07 12:25 25.09555 55.36041 12474 ft 299 kts 115°
2026-05-07 12:25 25.08713 55.38129 13278 ft 298 kts 116°
2026-05-07 12:25 25.07861 55.40221 13995 ft 298 kts 116°
2026-05-07 12:26 25.07002 55.42338 14508 ft 308 kts 115°
2026-05-07 12:26 25.06137 55.44572 14701 ft 329 kts 114°
2026-05-07 12:26 25.05222 55.46974 14892 ft 350 kts 114°
2026-05-07 12:26 25.04248 55.49522 15025 ft 371 kts 114°
2026-05-07 12:27 25.03104 55.52083 15124 ft 384 kts 127°
2026-05-07 12:27 25.01109 55.54089 15422 ft 396 kts 150°
2026-05-07 12:27 24.98472 55.55098 15797 ft 407 kts 170°
2026-05-07 12:27 24.95641 55.55427 16302 ft 412 kts 175°
2026-05-07 12:28 24.92765 55.55652 16948 ft 415 kts 176°
2026-05-07 12:28 24.89862 55.55847 17563 ft 420 kts 176°
2026-05-07 12:28 24.86927 55.56038 18140 ft 424 kts 176°
2026-05-07 12:28 24.83967 55.56237 18632 ft 429 kts 176°
2026-05-07 12:29 24.80973 55.56447 19167 ft 432 kts 176°
2026-05-07 12:29 24.77958 55.56667 19729 ft 435 kts 176°
2026-05-07 12:29 24.74932 55.56893 20306 ft 437 kts 176°
2026-05-07 12:29 24.71884 55.57123 20836 ft 441 kts 176°
2026-05-07 12:30 24.68844 55.57354 21312 ft 446 kts 176°
2026-05-07 12:30 24.65733 55.57591 21779 ft 450 kts 176°
2026-05-07 12:30 24.62598 55.57830 22297 ft 453 kts 176°
2026-05-07 12:30 24.59440 55.58069 22790 ft 456 kts 176°
2026-05-07 12:31 24.56257 55.58310 23273 ft 460 kts 176°
2026-05-07 12:31 24.53047 55.58555 23683 ft 464 kts 177°
2026-05-07 12:31 24.49822 55.58799 24071 ft 466 kts 177°
2026-05-07 12:31 24.46575 55.59044 24493 ft 468 kts 177°
2026-05-07 12:32 24.43313 55.59291 24916 ft 470 kts 178°
2026-05-07 12:32 24.40047 55.59539 25312 ft 472 kts 178°
2026-05-07 12:32 24.36759 55.59787 25675 ft 475 kts 178°
2026-05-07 12:32 24.33451 55.60037 26038 ft 478 kts 178°
2026-05-07 12:33 24.26782 55.60201 26751 ft 480 kts 186°
2026-05-07 12:33 24.23504 55.59775 27101 ft 481 kts 191°
2026-05-07 12:33 24.20228 55.59001 27469 ft 481 kts 197°
2026-05-07 12:34 24.17002 55.58008 27824 ft 483 kts 198°
2026-05-07 12:34 24.13760 55.57005 28161 ft 485 kts 198°
2026-05-07 12:34 24.10504 55.56015 28499 ft 487 kts 198°
2026-05-07 12:34 24.07226 55.55036 28819 ft 489 kts 197°
2026-05-07 12:35 24.03936 55.54064 29119 ft 491 kts 197°
2026-05-07 12:35 24.00633 55.53091 29403 ft 493 kts 198°
2026-05-07 12:35 23.97315 55.52108 29662 ft 494 kts 198°
2026-05-07 12:35 23.93991 55.51118 29957 ft 495 kts 198°
2026-05-07 12:36 23.90671 55.50128 30282 ft 494 kts 198°
2026-05-07 12:36 23.87364 55.49144 30638 ft 492 kts 198°
2026-05-07 12:36 23.84064 55.48163 30980 ft 491 kts 198°
2026-05-07 12:36 23.80769 55.47182 31288 ft 490 kts 198°
2026-05-07 12:37 23.77485 55.46204 31599 ft 489 kts 198°
2026-05-07 12:37 23.74203 55.45225 31909 ft 488 kts 198°
2026-05-07 12:37 23.70928 55.44249 32211 ft 488 kts 198°
2026-05-07 12:37 23.67654 55.43273 32479 ft 488 kts 198°
2026-05-07 12:38 23.64384 55.42300 32766 ft 487 kts 198°
2026-05-07 12:38 23.61159 55.41340 33075 ft 486 kts 198°
2026-05-07 12:38 23.57900 55.40372 33389 ft 485 kts 198°
2026-05-07 12:38 23.54595 55.39571 33640 ft 487 kts 190°
2026-05-07 12:39 23.51195 55.39337 33760 ft 494 kts 182°
2026-05-07 12:39 23.47746 55.39595 33815 ft 499 kts 175°
2026-05-07 12:39 23.41000 55.41447 33824 ft 500 kts 166°
2026-05-07 12:40 23.34348 55.43614 33828 ft 498 kts 166°
2026-05-07 12:40 23.27705 55.45754 33828 ft 498 kts 167°
2026-05-07 12:41 23.21051 55.47861 33830 ft 498 kts 167°
2026-05-07 12:41 23.14396 55.49958 33820 ft 498 kts 166°
2026-05-07 12:42 23.08859 55.51704 33823 ft 499 kts 166°
2026-05-07 12:42 23.02179 55.53806 33821 ft 499 kts 167°
2026-05-07 12:43 22.95488 55.55855 33822 ft 500 kts 167°
2026-05-07 12:43 22.88785 55.57890 33823 ft 500 kts 167°
2026-05-07 12:44 22.82082 55.59932 33822 ft 500 kts 167°
2026-05-07 12:44 22.75371 55.61979 33820 ft 500 kts 167°
2026-05-07 12:45 22.68712 55.64009 33812 ft 500 kts 167°
2026-05-07 12:45 22.62006 55.66050 33817 ft 500 kts 167°
2026-05-07 12:46 22.55309 55.68099 33818 ft 500 kts 167°
2026-05-07 12:46 22.48621 55.70151 33817 ft 499 kts 167°
2026-05-07 12:47 22.41936 55.72199 33814 ft 499 kts 167°
2026-05-07 12:47 22.35257 55.74241 33813 ft 499 kts 167°
2026-05-07 12:48 22.28620 55.76268 33811 ft 498 kts 167°
2026-05-07 12:48 22.21837 55.77629 33804 ft 494 kts 178°
2026-05-07 12:49 22.14982 55.78250 33809 ft 494 kts 178°
2026-05-07 12:49 22.08165 55.78889 33812 ft 494 kts 177°
2026-05-07 12:50 22.01304 55.79571 33824 ft 495 kts 177°
2026-05-07 12:50 21.94443 55.80265 33817 ft 495 kts 177°
2026-05-07 12:51 21.87572 55.80957 33811 ft 496 kts 177°
2026-05-07 12:51 21.80695 55.81648 33809 ft 496 kts 177°
2026-05-07 12:52 21.73822 55.82337 33820 ft 496 kts 177°
2026-05-07 12:52 21.66948 55.83022 33808 ft 496 kts 177°
2026-05-07 12:53 21.60075 55.83693 33819 ft 495 kts 177°
2026-05-07 12:53 21.53212 55.84362 33813 ft 495 kts 177°
2026-05-07 12:54 21.46351 55.85032 33813 ft 495 kts 177°
2026-05-07 12:54 21.39542 55.85696 33811 ft 494 kts 177°
2026-05-07 12:55 21.32686 55.86365 33814 ft 494 kts 177°
2026-05-07 12:55 21.25835 55.87032 33818 ft 494 kts 177°
2026-05-07 12:56 21.18978 55.87693 33816 ft 494 kts 177°
2026-05-07 12:56 21.12130 55.88349 33804 ft 494 kts 176°
2026-05-07 12:57 21.05283 55.89007 33814 ft 494 kts 176°
2026-05-07 12:57 20.98472 55.89661 33804 ft 494 kts 176°
2026-05-07 12:58 20.91616 55.90319 33808 ft 494 kts 176°
2026-05-07 12:58 20.84769 55.90976 33803 ft 494 kts 176°
2026-05-07 12:59 20.77916 55.91648 33805 ft 494 kts 176°
2026-05-07 12:59 20.71067 55.92324 33803 ft 494 kts 176°
2026-05-07 13:00 20.64215 55.92998 33802 ft 494 kts 176°
2026-05-07 13:00 20.57369 55.93669 33801 ft 494 kts 176°
2026-05-07 13:01 20.50526 55.94339 33804 ft 494 kts 176°
2026-05-07 13:01 20.43731 55.95004 33806 ft 493 kts 176°
2026-05-07 13:02 20.36889 55.95673 33805 ft 493 kts 176°
2026-05-07 13:02 20.30046 55.96341 33806 ft 493 kts 176°
2026-05-07 13:03 20.23210 55.96993 33809 ft 493 kts 176°
2026-05-07 13:03 20.16374 55.97641 33810 ft 493 kts 176°
2026-05-07 13:04 20.09535 55.98291 33807 ft 493 kts 176°
2026-05-07 13:04 20.02689 55.98596 33813 ft 492 kts 180°
2026-05-07 13:05 19.95844 55.98727 33813 ft 492 kts 180°
2026-05-07 13:05 19.89041 55.98870 33813 ft 492 kts 180°
2026-05-07 13:06 19.82186 55.99033 33802 ft 493 kts 180°
2026-05-07 13:06 19.75332 55.99201 33804 ft 493 kts 180°
2026-05-07 13:07 19.68467 55.99368 33811 ft 493 kts 180°
2026-05-07 13:07 19.61604 55.99534 33815 ft 493 kts 180°
2026-05-07 13:08 19.54735 55.99636 33814 ft 492 kts 185°
2026-05-07 13:08 19.48090 55.98090 33814 ft 490 kts 201°
2026-05-07 13:09 19.42070 55.94772 33826 ft 488 kts 211°
2026-05-07 13:09 19.36242 55.91123 33820 ft 490 kts 211°
2026-05-07 13:10 19.30328 55.87488 33812 ft 491 kts 210°
2026-05-07 13:10 19.24395 55.83891 33816 ft 491 kts 210°
2026-05-07 13:11 19.18445 55.80293 33816 ft 492 kts 210°
2026-05-07 13:11 19.12536 55.76717 33818 ft 491 kts 210°
2026-05-07 13:12 19.06606 55.73131 33816 ft 490 kts 210°
2026-05-07 13:12 19.00690 55.69563 33812 ft 489 kts 210°
2026-05-07 13:13 18.94777 55.66010 33821 ft 488 kts 210°
2026-05-07 13:13 18.88877 55.62465 33819 ft 488 kts 210°
2026-05-07 13:14 18.82976 55.58921 33823 ft 488 kts 210°
2026-05-07 13:14 18.77070 55.55376 33824 ft 488 kts 210°
2026-05-07 13:15 18.71194 55.51851 33829 ft 489 kts 210°
2026-05-07 13:15 18.65275 55.48305 33832 ft 489 kts 210°
2026-05-07 13:16 18.59435 55.44808 33822 ft 490 kts 210°
2026-05-07 13:16 18.53500 55.41257 33833 ft 490 kts 210°
2026-05-07 13:17 18.47579 55.37717 33829 ft 490 kts 210°
2026-05-07 13:17 18.41698 55.34203 33830 ft 489 kts 210°
2026-05-07 13:18 18.35774 55.30667 33826 ft 489 kts 210°
2026-05-07 13:18 18.29865 55.27141 33829 ft 488 kts 210°
2026-05-07 13:19 18.23950 55.23613 33831 ft 488 kts 211°
2026-05-07 13:19 18.18045 55.20092 33819 ft 488 kts 211°
2026-05-07 13:20 18.12034 55.16737 33825 ft 489 kts 205°
2026-05-07 13:20 18.05801 55.13966 33830 ft 490 kts 204°
2026-05-07 13:21 17.99513 55.11193 33829 ft 490 kts 204°
2026-05-07 13:21 17.93221 55.08388 33835 ft 491 kts 205°
2026-05-07 13:22 17.86937 55.05571 33818 ft 491 kts 204°
2026-05-07 13:22 17.80643 55.02748 33834 ft 491 kts 205°
2026-05-07 13:23 17.74352 54.99931 33831 ft 491 kts 204°
2026-05-07 13:23 17.68072 54.97122 33844 ft 490 kts 204°
2026-05-07 13:24 17.61836 54.94335 33832 ft 490 kts 204°
2026-05-07 13:24 17.55562 54.91532 33852 ft 490 kts 204°
2026-05-07 13:25 17.49296 54.88736 33852 ft 490 kts 204°
2026-05-07 13:25 17.43016 54.85936 33866 ft 490 kts 204°
2026-05-07 13:26 17.36736 54.83137 33871 ft 491 kts 204°
2026-05-07 13:26 17.30441 54.80332 33868 ft 491 kts 204°
2026-05-07 13:27 17.24375 54.77170 33864 ft 490 kts 213°
2026-05-07 13:27 17.18665 54.73282 33870 ft 490 kts 214°
2026-05-07 13:28 17.12944 54.69398 33870 ft 490 kts 214°
2026-05-07 13:28 17.07208 54.65554 33869 ft 490 kts 213°
2026-05-07 13:29 17.01470 54.61724 33857 ft 489 kts 213°
2026-05-07 13:29 16.95734 54.57896 33864 ft 489 kts 213°
2026-05-07 13:30 16.90003 54.54071 33843 ft 489 kts 213°
2026-05-07 13:30 16.84271 54.50248 33848 ft 489 kts 213°
2026-05-07 13:31 16.78568 54.46444 33850 ft 490 kts 213°
2026-05-07 13:31 16.72817 54.42609 33836 ft 491 kts 213°
2026-05-07 13:32 16.67063 54.38775 33836 ft 491 kts 213°
2026-05-07 13:32 16.61307 54.34943 33836 ft 491 kts 213°
2026-05-07 13:33 16.56509 54.31750 33830 ft 491 kts 213°
2026-05-07 13:33 16.50744 54.27917 33837 ft 491 kts 213°
2026-05-07 13:34 16.42094 54.22171 33838 ft 492 kts 213°
2026-05-07 13:35 16.36324 54.18341 33835 ft 492 kts 213°
2026-05-07 13:35 16.30551 54.14511 33839 ft 491 kts 213°
2026-05-07 13:36 16.24785 54.10689 33834 ft 491 kts 213°
2026-05-07 13:36 16.19007 54.06863 33839 ft 492 kts 213°
2026-05-07 13:37 16.13230 54.03038 33833 ft 492 kts 213°
2026-05-07 13:37 16.07489 53.99241 33841 ft 492 kts 213°
2026-05-07 13:38 16.01701 53.95415 33838 ft 493 kts 213°
2026-05-07 13:38 15.95916 53.91593 33840 ft 493 kts 213°
2026-05-07 13:39 15.90122 53.87768 33837 ft 493 kts 213°
2026-05-07 13:39 15.84332 53.83934 33843 ft 493 kts 213°
2026-05-07 13:40 15.78559 53.80074 33842 ft 494 kts 213°
2026-05-07 13:40 15.72780 53.76209 33842 ft 494 kts 213°
2026-05-07 13:41 15.67032 53.72373 33845 ft 494 kts 213°
2026-05-07 13:41 15.61249 53.68518 33840 ft 494 kts 213°
2026-05-07 13:42 15.55461 53.64663 33835 ft 494 kts 213°
2026-05-07 13:42 15.49679 53.60813 33840 ft 494 kts 213°
2026-05-07 13:43 15.43895 53.56965 33844 ft 494 kts 213°
2026-05-07 13:43 15.38061 53.53170 33844 ft 494 kts 212°
2026-05-07 13:44 15.32196 53.49434 33839 ft 495 kts 212°
2026-05-07 13:44 15.26331 53.45693 33836 ft 495 kts 212°
2026-05-07 13:45 15.20474 53.41946 33837 ft 495 kts 212°
2026-05-07 13:45 15.14616 53.38195 33839 ft 495 kts 212°
2026-05-07 13:46 15.08760 53.34448 33838 ft 495 kts 212°
2026-05-07 13:46 15.02903 53.30703 33837 ft 495 kts 212°
2026-05-07 13:47 14.97047 53.26962 33835 ft 495 kts 212°
2026-05-07 13:47 14.91187 53.23221 33837 ft 494 kts 212°
2026-05-07 13:48 14.85375 53.19513 33834 ft 494 kts 212°
2026-05-07 13:48 14.79527 53.15783 33835 ft 493 kts 212°
2026-05-07 13:49 14.73686 53.12060 33832 ft 493 kts 212°
2026-05-07 13:49 14.67850 53.08343 33838 ft 492 kts 212°
2026-05-07 13:50 14.62012 53.04616 33843 ft 492 kts 212°
2026-05-07 13:50 14.56233 53.00900 33834 ft 492 kts 212°
2026-05-07 13:51 14.50418 52.97159 33836 ft 492 kts 212°
2026-05-07 13:51 14.44614 52.93431 33837 ft 491 kts 212°
2026-05-07 13:52 14.38808 52.89707 33829 ft 491 kts 212°
2026-05-07 13:52 14.33006 52.85987 33836 ft 491 kts 212°
2026-05-07 13:53 14.27210 52.82274 33832 ft 491 kts 212°
2026-05-07 13:53 14.21408 52.78559 33827 ft 491 kts 212°
2026-05-07 13:54 14.15640 52.74868 33837 ft 490 kts 212°
2026-05-07 13:54 14.09837 52.71156 33827 ft 490 kts 212°
2026-05-07 13:55 14.04041 52.67452 33827 ft 490 kts 212°
2026-05-07 13:55 13.98241 52.63748 33833 ft 490 kts 212°
2026-05-07 13:56 13.92483 52.60072 33830 ft 490 kts 212°
2026-05-07 13:56 13.86692 52.56377 33830 ft 490 kts 212°
2026-05-07 13:57 13.80891 52.52678 33832 ft 490 kts 212°
2026-05-07 13:57 13.75095 52.48984 33831 ft 490 kts 211°
2026-05-07 13:58 13.69307 52.45298 33828 ft 489 kts 211°
2026-05-07 13:58 13.63511 52.41609 33835 ft 489 kts 211°
2026-05-07 13:59 13.57717 52.37923 33825 ft 489 kts 211°
2026-05-07 13:59 13.51966 52.34266 33826 ft 489 kts 211°
2026-05-07 14:00 13.46179 52.30588 33831 ft 488 kts 211°
2026-05-07 14:00 13.40405 52.26921 33826 ft 488 kts 211°
2026-05-07 14:01 13.34626 52.23259 33829 ft 488 kts 211°
2026-05-07 14:01 13.28840 52.19605 33828 ft 488 kts 211°
2026-05-07 14:02 13.23054 52.15953 33821 ft 488 kts 211°
2026-05-07 14:02 13.17268 52.12301 33826 ft 488 kts 211°
2026-05-07 14:03 13.11515 52.08670 33824 ft 488 kts 211°
2026-05-07 14:03 13.05727 52.05019 33818 ft 488 kts 211°
2026-05-07 14:04 12.99936 52.01368 33824 ft 488 kts 211°
2026-05-07 14:04 12.94142 51.97718 33817 ft 488 kts 211°
2026-05-07 14:05 12.88357 51.94075 33812 ft 488 kts 211°
2026-05-07 14:05 12.82606 51.90456 33821 ft 488 kts 211°
2026-05-07 14:06 12.76818 51.86816 33821 ft 488 kts 211°
2026-05-07 14:06 12.71018 51.83169 33816 ft 488 kts 211°
2026-05-07 14:07 12.65225 51.79529 33819 ft 488 kts 211°
2026-05-07 14:07 12.59466 51.75913 33814 ft 488 kts 211°
2026-05-07 14:08 12.53674 51.72278 33812 ft 488 kts 211°
2026-05-07 14:08 12.47882 51.68644 33818 ft 487 kts 211°
2026-05-07 14:09 12.42103 51.65021 33816 ft 487 kts 211°
2026-05-07 14:09 12.36324 51.61400 33812 ft 487 kts 211°
2026-05-07 14:10 12.30573 51.57797 33813 ft 487 kts 211°
2026-05-07 14:10 12.24786 51.54174 33819 ft 487 kts 210°
2026-05-07 14:11 12.19004 51.50557 33805 ft 487 kts 211°
2026-05-07 14:11 12.13233 51.46947 33813 ft 486 kts 210°
2026-05-07 14:12 12.07467 51.43342 33807 ft 485 kts 210°
2026-05-07 14:12 12.01740 51.39765 33802 ft 485 kts 210°
2026-05-07 14:13 11.95981 51.36168 33821 ft 485 kts 210°
2026-05-07 14:13 11.90215 51.32566 33810 ft 486 kts 211°
2026-05-07 14:14 11.84438 51.28958 33815 ft 487 kts 211°
2026-05-07 14:14 11.78642 51.25340 33819 ft 489 kts 211°
2026-05-07 14:15 11.72820 51.21708 33816 ft 490 kts 211°
2026-05-07 14:15 11.67032 51.18098 33822 ft 491 kts 211°
2026-05-07 14:16 11.61199 51.14463 33827 ft 491 kts 211°
2026-05-07 14:16 11.55359 51.10825 33828 ft 491 kts 211°
2026-05-07 14:17 11.49526 51.07192 33828 ft 491 kts 211°
2026-05-07 14:17 11.43704 51.03568 33838 ft 490 kts 211°
2026-05-07 14:18 11.37893 50.99953 33842 ft 489 kts 210°
2026-05-07 14:18 11.32082 50.96334 33846 ft 489 kts 211°
2026-05-07 14:19 11.26305 50.92735 33841 ft 489 kts 211°
2026-05-07 14:19 11.20497 50.89119 33844 ft 489 kts 211°
2026-05-07 14:20 11.14686 50.85502 33845 ft 490 kts 210°
2026-05-07 14:20 11.08872 50.81886 33838 ft 489 kts 210°
2026-05-07 14:21 11.03069 50.78277 33839 ft 488 kts 210°
2026-05-07 14:21 10.97269 50.74674 33824 ft 488 kts 210°
2026-05-07 14:22 10.91483 50.71079 33824 ft 487 kts 210°
2026-05-07 14:22 10.86673 50.68093 33831 ft 486 kts 210°
2026-05-07 14:23 10.79957 50.63925 33823 ft 486 kts 210°
2026-05-07 14:23 10.75120 50.60924 33826 ft 486 kts 210°
2026-05-07 14:24 10.69352 50.57347 33826 ft 485 kts 210°
2026-05-07 14:24 10.63622 50.53796 33816 ft 485 kts 210°
2026-05-07 14:25 10.57866 50.50230 33815 ft 484 kts 210°
2026-05-07 14:25 10.52102 50.46661 33816 ft 484 kts 210°
2026-05-07 14:26 10.46345 50.43098 33805 ft 485 kts 210°
2026-05-07 14:26 10.40581 50.39531 33807 ft 485 kts 210°
2026-05-07 14:27 10.34814 50.35965 33815 ft 486 kts 210°
2026-05-07 14:27 10.29036 50.32394 33799 ft 487 kts 210°
2026-05-07 14:28 10.23246 50.28816 33804 ft 487 kts 210°
2026-05-07 14:28 10.17488 50.25259 33807 ft 487 kts 210°
2026-05-07 14:29 10.11694 50.21683 33796 ft 487 kts 210°
2026-05-07 14:29 10.05902 50.18108 33806 ft 487 kts 210°
2026-05-07 14:30 10.00106 50.14533 33813 ft 487 kts 210°
2026-05-07 14:30 9.94308 50.10958 33818 ft 488 kts 210°
2026-05-07 14:31 9.88495 50.07376 33808 ft 488 kts 210°
2026-05-07 14:31 9.82680 50.03793 33821 ft 488 kts 210°
2026-05-07 14:32 9.76877 50.00220 33822 ft 488 kts 210°
2026-05-07 14:32 9.71113 49.96672 33821 ft 488 kts 210°
2026-05-07 14:33 9.65308 49.93100 33823 ft 488 kts 210°
2026-05-07 14:33 9.59499 49.89527 33828 ft 488 kts 210°
2026-05-07 14:34 9.53686 49.85953 33823 ft 489 kts 210°
2026-05-07 14:34 9.47874 49.82381 33825 ft 488 kts 210°
2026-05-07 14:35 9.42065 49.78812 33826 ft 488 kts 210°
2026-05-07 14:35 9.36252 49.75243 33820 ft 488 kts 210°
2026-05-07 14:36 9.30441 49.71675 33819 ft 489 kts 211°
2026-05-07 14:36 9.24658 49.68126 33824 ft 490 kts 211°
2026-05-07 14:37 9.18819 49.64547 33819 ft 490 kts 210°
2026-05-07 14:37 9.10051 49.59186 33819 ft 491 kts 210°
2026-05-07 14:38 9.04203 49.55610 33812 ft 491 kts 210°
2026-05-07 14:38 8.98351 49.52032 33817 ft 491 kts 211°
2026-05-07 14:39 8.92504 49.48459 33815 ft 492 kts 211°
2026-05-07 14:39 8.86686 49.44905 33817 ft 492 kts 211°
2026-05-07 14:40 8.80808 49.41314 33815 ft 493 kts 211°
2026-05-07 14:40 8.74924 49.37722 33814 ft 494 kts 211°
2026-05-07 14:41 8.69036 49.34128 33814 ft 494 kts 211°
2026-05-07 14:41 8.63147 49.30535 33818 ft 494 kts 211°
2026-05-07 14:42 8.57258 49.26946 33809 ft 494 kts 211°
2026-05-07 14:42 8.51394 49.23373 33804 ft 495 kts 211°
2026-05-07 14:43 8.45502 49.19783 33802 ft 495 kts 211°
2026-05-07 14:43 8.39602 49.16188 33799 ft 495 kts 211°
2026-05-07 14:44 8.33709 49.12599 33808 ft 495 kts 211°
2026-05-07 14:44 8.27811 49.09009 33803 ft 494 kts 211°
2026-05-07 14:45 8.21920 49.05423 33801 ft 495 kts 211°
2026-05-07 14:45 8.16020 49.01834 33808 ft 495 kts 211°
2026-05-07 14:46 8.10123 48.98248 33816 ft 495 kts 211°
2026-05-07 14:46 8.04265 48.94687 33811 ft 495 kts 211°
2026-05-07 14:47 7.98364 48.91101 33818 ft 495 kts 211°
2026-05-07 14:47 7.92460 48.87514 33825 ft 495 kts 211°
2026-05-07 14:48 7.86552 48.83926 33825 ft 496 kts 211°
2026-05-07 14:48 7.80641 48.80337 33844 ft 497 kts 211°
2026-05-07 14:49 7.77682 48.78541 34128 ft 495 kts 211°
2026-05-07 14:49 7.74740 48.76756 34454 ft 493 kts 211°
2026-05-07 14:49 7.71803 48.74974 34739 ft 492 kts 211°
2026-05-07 14:49 7.68863 48.73191 35032 ft 490 kts 211°
2026-05-07 14:50 7.65984 48.71444 35326 ft 489 kts 211°
2026-05-07 14:50 7.63068 48.69675 35533 ft 489 kts 211°
2026-05-07 14:50 7.60150 48.67906 35729 ft 490 kts 211°
2026-05-07 14:50 7.57220 48.66129 35756 ft 493 kts 211°
2026-05-07 14:51 7.51358 48.62576 35797 ft 489 kts 211°
2026-05-07 14:51 7.45545 48.59053 35810 ft 486 kts 211°
2026-05-07 14:52 7.39755 48.55545 35801 ft 486 kts 211°
2026-05-07 14:52 7.33957 48.52034 35805 ft 485 kts 211°
2026-05-07 14:53 7.28182 48.48489 35805 ft 486 kts 212°
2026-05-07 14:53 7.22418 48.44922 35803 ft 487 kts 212°
2026-05-07 14:54 7.16679 48.41374 35804 ft 487 kts 211°
2026-05-07 14:54 7.10896 48.37806 35803 ft 488 kts 211°
2026-05-07 14:55 7.05105 48.34238 35798 ft 488 kts 212°
2026-05-07 14:55 6.99320 48.30673 35793 ft 488 kts 212°
2026-05-07 14:56 6.93526 48.27104 35801 ft 487 kts 212°
2026-05-07 14:56 6.87738 48.23539 35799 ft 487 kts 212°
2026-05-07 14:57 6.81996 48.20004 35796 ft 487 kts 212°
2026-05-07 14:57 6.76212 48.16443 35796 ft 487 kts 212°
2026-05-07 14:58 6.70430 48.12885 35802 ft 487 kts 212°
2026-05-07 14:58 6.64646 48.09327 35795 ft 488 kts 212°
2026-05-07 14:59 6.58849 48.05763 35795 ft 488 kts 212°
2026-05-07 14:59 6.53056 48.02201 35796 ft 488 kts 212°
2026-05-07 15:00 6.47261 47.98638 35802 ft 488 kts 211°
2026-05-07 15:00 6.41464 47.95076 35797 ft 488 kts 211°
2026-05-07 15:01 6.35677 47.91521 35794 ft 487 kts 211°
2026-05-07 15:01 6.29927 47.87990 35795 ft 487 kts 211°
2026-05-07 15:02 6.24148 47.84441 35792 ft 487 kts 211°
2026-05-07 15:02 6.18370 47.80895 35792 ft 486 kts 211°
2026-05-07 15:03 6.12595 47.77351 35797 ft 486 kts 211°
2026-05-07 15:03 6.06824 47.73810 35796 ft 486 kts 211°
2026-05-07 15:04 6.01062 47.70276 35797 ft 485 kts 211°
2026-05-07 15:04 5.95296 47.66740 35796 ft 485 kts 211°
2026-05-07 15:05 5.89534 47.63207 35797 ft 485 kts 211°
2026-05-07 15:05 5.83769 47.59673 35798 ft 485 kts 211°
2026-05-07 15:06 5.77995 47.56135 35802 ft 485 kts 211°
2026-05-07 15:06 5.72231 47.52603 35799 ft 485 kts 211°
2026-05-07 15:07 5.66497 47.49090 35802 ft 486 kts 211°
2026-05-07 15:07 5.60714 47.45574 35801 ft 486 kts 211°
2026-05-07 15:08 5.54918 47.42082 35802 ft 486 kts 211°
2026-05-07 15:08 5.49108 47.38581 35806 ft 486 kts 211°
2026-05-07 15:09 5.43314 47.35084 35811 ft 486 kts 211°
2026-05-07 15:09 5.37522 47.31588 35804 ft 485 kts 211°
2026-05-07 15:10 5.31745 47.28100 35811 ft 485 kts 211°
2026-05-07 15:10 5.25962 47.24610 35807 ft 485 kts 211°
2026-05-07 15:11 5.20174 47.21118 35820 ft 485 kts 211°
2026-05-07 15:11 5.14389 47.17628 35816 ft 486 kts 211°
2026-05-07 15:12 5.08635 47.14158 35822 ft 485 kts 211°
2026-05-07 15:12 5.02851 47.10671 35823 ft 485 kts 211°
2026-05-07 15:13 4.98007 47.07751 35821 ft 485 kts 211°
2026-05-07 15:13 4.92267 47.04292 35826 ft 484 kts 211°
2026-05-07 15:14 4.86494 47.00813 35835 ft 484 kts 211°
2026-05-07 15:14 4.80724 46.97337 35833 ft 484 kts 211°
2026-05-07 15:15 4.74958 46.93863 35832 ft 483 kts 211°
2026-05-07 15:15 4.69196 46.90393 35832 ft 483 kts 211°
2026-05-07 15:16 4.63431 46.86922 35842 ft 483 kts 211°
2026-05-07 15:16 4.57655 46.83445 35846 ft 484 kts 211°
2026-05-07 15:17 4.51911 46.79988 35841 ft 484 kts 211°
2026-05-07 15:17 4.46126 46.76506 35841 ft 484 kts 211°
2026-05-07 15:18 4.40341 46.73026 35845 ft 484 kts 211°
2026-05-07 15:18 4.34557 46.69547 35842 ft 485 kts 211°
2026-05-07 15:19 4.28778 46.66071 35842 ft 484 kts 211°
2026-05-07 15:19 4.23037 46.62619 35843 ft 484 kts 211°
2026-05-07 15:20 4.17260 46.59146 35846 ft 484 kts 211°
2026-05-07 15:20 4.11490 46.55677 35847 ft 484 kts 211°
2026-05-07 15:21 4.05725 46.52212 35849 ft 483 kts 211°
2026-05-07 15:21 3.99964 46.48750 35853 ft 482 kts 211°
2026-05-07 15:22 3.94213 46.45295 35852 ft 482 kts 211°
2026-05-07 15:22 3.88457 46.41837 35850 ft 482 kts 211°
2026-05-07 15:23 3.82709 46.38385 35850 ft 482 kts 211°
2026-05-07 15:23 3.76992 46.34952 35857 ft 482 kts 211°
2026-05-07 15:24 3.71224 46.31489 35863 ft 483 kts 211°
2026-05-07 15:24 3.65451 46.28023 35853 ft 484 kts 211°
2026-05-07 15:25 3.59667 46.24551 35867 ft 484 kts 211°
2026-05-07 15:25 3.54004 46.21152 35867 ft 484 kts 211°
2026-05-07 15:26 3.48222 46.17683 35859 ft 484 kts 211°
2026-05-07 15:26 3.42492 46.14245 35861 ft 483 kts 211°
2026-05-07 15:27 3.36719 46.10781 35866 ft 483 kts 211°
2026-05-07 15:27 3.30961 46.07328 35863 ft 482 kts 211°
2026-05-07 15:28 3.25204 46.03875 35861 ft 482 kts 211°
2026-05-07 15:28 3.19451 46.00425 35859 ft 482 kts 211°
2026-05-07 15:29 3.13694 45.96973 35866 ft 482 kts 211°
2026-05-07 15:29 3.07962 45.93537 35865 ft 483 kts 211°
2026-05-07 15:30 3.02201 45.90084 35865 ft 483 kts 211°
2026-05-07 15:30 2.96433 45.86627 35866 ft 483 kts 211°
2026-05-07 15:31 2.90668 45.83172 35869 ft 483 kts 211°
2026-05-07 15:31 2.84887 45.79708 35868 ft 484 kts 211°
2026-05-07 15:32 2.79147 45.76269 35859 ft 484 kts 211°
2026-05-07 15:32 2.73376 45.72811 35870 ft 483 kts 211°
2026-05-07 15:33 2.67602 45.69353 35864 ft 483 kts 211°
2026-05-07 15:33 2.61826 45.65893 35870 ft 483 kts 211°
2026-05-07 15:34 2.56058 45.62439 35864 ft 483 kts 211°
2026-05-07 15:34 2.50290 45.58985 35868 ft 483 kts 211°
2026-05-07 15:35 2.44557 45.55553 35869 ft 483 kts 211°
2026-05-07 15:35 2.38753 45.52078 35868 ft 483 kts 211°
2026-05-07 15:36 2.32991 45.48628 35863 ft 483 kts 211°
2026-05-07 15:36 2.27255 45.45194 35867 ft 483 kts 211°
2026-05-07 15:37 2.21492 45.41746 35871 ft 483 kts 211°
2026-05-07 15:37 2.15723 45.38292 35868 ft 483 kts 211°
2026-05-07 15:38 2.09960 45.34843 35856 ft 483 kts 211°
2026-05-07 15:38 2.04198 45.31394 35858 ft 483 kts 211°
2026-05-07 15:39 1.98483 45.27866 35858 ft 482 kts 213°
2026-05-07 15:39 1.92909 45.24113 35861 ft 482 kts 214°
2026-05-07 15:40 1.87366 45.20336 35857 ft 483 kts 214°
2026-05-07 15:40 1.81835 45.16588 35867 ft 483 kts 214°
2026-05-07 15:41 1.76258 45.12827 35872 ft 484 kts 214°
2026-05-07 15:41 1.70675 45.09065 35875 ft 484 kts 214°
2026-05-07 15:42 1.65088 45.05302 35866 ft 484 kts 214°
2026-05-07 15:42 1.59503 45.01538 35864 ft 484 kts 213°
2026-05-07 15:43 1.53942 44.97791 35874 ft 485 kts 213°
2026-05-07 15:43 1.48343 44.94018 35875 ft 486 kts 213°
2026-05-07 15:44 1.42735 44.90240 35871 ft 487 kts 213°
2026-05-07 15:44 1.37115 44.86454 35868 ft 487 kts 213°
2026-05-07 15:45 1.31494 44.82667 35870 ft 487 kts 213°
2026-05-07 15:45 1.25871 44.78879 35880 ft 488 kts 213°
2026-05-07 15:46 1.17426 44.73191 35878 ft 488 kts 213°
2026-05-07 15:47 1.11794 44.69397 35877 ft 488 kts 213°
2026-05-07 15:47 1.06159 44.65603 35879 ft 488 kts 213°
2026-05-07 15:48 1.00524 44.61808 35880 ft 488 kts 213°
2026-05-07 15:48 0.94900 44.58020 35877 ft 487 kts 213°
2026-05-07 15:49 0.89287 44.54240 35880 ft 486 kts 213°
2026-05-07 15:49 0.83717 44.50489 35880 ft 485 kts 213°
2026-05-07 15:50 0.78118 44.46719 35885 ft 485 kts 214°
2026-05-07 15:50 0.72524 44.42952 35883 ft 484 kts 214°
2026-05-07 15:51 0.66937 44.39190 35887 ft 483 kts 214°
2026-05-07 15:51 0.61366 44.35439 35886 ft 483 kts 214°
2026-05-07 15:52 0.55829 44.31711 35890 ft 483 kts 214°
2026-05-07 15:52 0.50256 44.27959 35882 ft 483 kts 214°
2026-05-07 15:53 0.44674 44.24200 35885 ft 484 kts 214°
2026-05-07 15:53 0.39092 44.20440 35886 ft 484 kts 213°
2026-05-07 15:54 0.33497 44.16673 35884 ft 485 kts 213°
2026-05-07 15:54 0.27898 44.12896 35883 ft 486 kts 214°
2026-05-07 15:55 0.22300 44.09107 35884 ft 487 kts 214°
2026-05-07 15:55 0.16688 44.05307 35885 ft 487 kts 214°
2026-05-07 15:56 0.11068 44.01503 35886 ft 487 kts 214°
2026-05-07 15:56 0.05492 43.97730 35885 ft 488 kts 213°
2026-05-07 15:57 -0.00130 43.93925 35888 ft 488 kts 213°
2026-05-07 15:57 -0.05754 43.90120 35885 ft 488 kts 214°
2026-05-07 15:58 -0.11373 43.86318 35886 ft 488 kts 213°
2026-05-07 15:58 -0.16994 43.82514 35885 ft 488 kts 213°
2026-05-07 15:59 -0.22617 43.78709 35881 ft 488 kts 214°
2026-05-07 15:59 -0.28244 43.74901 35882 ft 488 kts 214°
2026-05-07 16:00 -0.33872 43.71093 35882 ft 488 kts 214°
2026-05-07 16:00 -0.39458 43.67312 35887 ft 488 kts 214°
2026-05-07 16:01 -0.45081 43.63507 35890 ft 488 kts 213°
2026-05-07 16:01 -0.50713 43.59696 35881 ft 489 kts 214°
2026-05-07 16:02 -0.56340 43.55888 35882 ft 489 kts 214°
2026-05-07 16:02 -0.61025 43.52717 35885 ft 489 kts 214°
2026-05-07 16:03 -0.66662 43.48902 35886 ft 489 kts 214°
2026-05-07 16:03 -0.72300 43.45086 35884 ft 490 kts 214°
2026-05-07 16:04 -0.77938 43.41270 35889 ft 490 kts 214°
2026-05-07 16:04 -0.83584 43.37449 35896 ft 490 kts 214°
2026-05-07 16:05 -0.89196 43.33650 35891 ft 490 kts 214°
2026-05-07 16:05 -0.94847 43.29825 35890 ft 490 kts 214°
2026-05-07 16:06 -1.00494 43.26002 35890 ft 491 kts 214°
2026-05-07 16:06 -1.06154 43.22171 35890 ft 491 kts 214°
2026-05-07 16:07 -1.11804 43.18346 35894 ft 490 kts 214°
2026-05-07 16:07 -1.17461 43.14516 35891 ft 490 kts 214°
2026-05-07 16:08 -1.23112 43.10690 35896 ft 490 kts 214°
2026-05-07 16:08 -1.28768 43.06860 35890 ft 490 kts 214°
2026-05-07 16:09 -1.34418 43.03034 35893 ft 490 kts 214°
2026-05-07 16:09 -1.40031 42.99234 35889 ft 490 kts 214°
2026-05-07 16:10 -1.45675 42.95411 35892 ft 490 kts 215°
2026-05-07 16:10 -1.51315 42.91591 35894 ft 489 kts 215°
2026-05-07 16:11 -1.56953 42.87772 35893 ft 489 kts 215°
2026-05-07 16:11 -1.62591 42.83954 35891 ft 489 kts 215°
2026-05-07 16:12 -1.68228 42.80135 35897 ft 489 kts 214°
2026-05-07 16:12 -1.73868 42.76315 35897 ft 489 kts 215°
2026-05-07 16:13 -1.79506 42.72494 35895 ft 489 kts 215°
2026-05-07 16:13 -1.85141 42.68676 35892 ft 489 kts 215°
2026-05-07 16:14 -1.90740 42.64881 35894 ft 489 kts 215°
2026-05-07 16:14 -1.96375 42.61061 35892 ft 489 kts 215°
2026-05-07 16:15 -2.01992 42.57247 35893 ft 489 kts 215°
2026-05-07 16:15 -2.07600 42.53360 35895 ft 489 kts 216°
2026-05-07 16:16 -2.13179 42.49479 35893 ft 489 kts 216°
2026-05-07 16:16 -2.18767 42.45604 35894 ft 488 kts 216°
2026-05-07 16:17 -2.24332 42.41706 35897 ft 488 kts 217°
2026-05-07 16:17 -2.29796 42.37677 35896 ft 488 kts 218°
2026-05-07 16:18 -2.35239 42.33619 35897 ft 488 kts 218°
2026-05-07 16:18 -2.40694 42.29576 35894 ft 488 kts 217°
2026-05-07 16:19 -2.46161 42.25541 35893 ft 488 kts 217°
2026-05-07 16:19 -2.51596 42.21534 35898 ft 488 kts 217°
2026-05-07 16:20 -2.57074 42.17495 35895 ft 488 kts 217°
2026-05-07 16:20 -2.62545 42.13459 35898 ft 489 kts 217°
2026-05-07 16:21 -2.68020 42.09421 35901 ft 489 kts 217°
2026-05-07 16:21 -2.73499 42.05377 35898 ft 490 kts 217°
2026-05-07 16:22 -2.78988 42.01326 35898 ft 490 kts 217°
2026-05-07 16:22 -2.84475 41.97277 35903 ft 490 kts 217°
2026-05-07 16:23 -2.89970 41.93221 35896 ft 491 kts 217°
2026-05-07 16:23 -2.95468 41.89162 35902 ft 492 kts 217°
2026-05-07 16:24 -3.00947 41.85117 35899 ft 492 kts 217°
2026-05-07 16:24 -3.06462 41.81045 35900 ft 493 kts 217°
2026-05-07 16:25 -3.11986 41.76966 35900 ft 493 kts 217°
2026-05-07 16:25 -3.17514 41.72883 35903 ft 493 kts 217°
2026-05-07 16:26 -3.23037 41.68803 35906 ft 493 kts 217°
2026-05-07 16:26 -3.28519 41.64753 35904 ft 493 kts 217°
2026-05-07 16:27 -3.34037 41.60676 35903 ft 492 kts 217°
2026-05-07 16:27 -3.39543 41.56606 35902 ft 492 kts 217°
2026-05-07 16:28 -3.45049 41.52537 35897 ft 492 kts 217°
2026-05-07 16:28 -3.50550 41.48470 35901 ft 492 kts 217°
2026-05-07 16:29 -3.56020 41.44426 35907 ft 492 kts 217°
2026-05-07 16:29 -3.61530 41.40351 35905 ft 492 kts 218°
2026-05-07 16:30 -3.67044 41.36274 35904 ft 493 kts 217°
2026-05-07 16:30 -3.72565 41.32189 35909 ft 493 kts 217°
2026-05-07 16:31 -3.78090 41.28101 35903 ft 494 kts 217°
2026-05-07 16:31 -3.83633 41.24000 35909 ft 496 kts 217°
2026-05-07 16:32 -3.89193 41.19885 35907 ft 497 kts 217°
2026-05-07 16:32 -3.94725 41.15789 35911 ft 498 kts 217°
2026-05-07 16:33 -4.00330 41.11716 35906 ft 498 kts 213°
2026-05-07 16:33 -4.06249 41.08089 35910 ft 498 kts 211°
2026-05-07 16:34 -4.12206 41.04518 35909 ft 499 kts 211°
2026-05-07 16:34 -4.18147 41.00925 35910 ft 499 kts 211°
2026-05-07 16:35 -4.24092 40.97304 35908 ft 500 kts 211°
2026-05-07 16:35 -4.30029 40.93681 35912 ft 499 kts 211°
2026-05-07 16:36 -4.35970 40.90056 35898 ft 500 kts 211°
2026-05-07 16:36 -4.41886 40.86448 35929 ft 501 kts 211°
2026-05-07 16:37 -4.47853 40.82808 35922 ft 503 kts 211°
2026-05-07 16:37 -4.53840 40.79155 35914 ft 504 kts 211°
2026-05-07 16:38 -4.59840 40.75494 35905 ft 505 kts 211°
2026-05-07 16:38 -4.65840 40.71831 35902 ft 505 kts 211°
2026-05-07 16:39 -4.71845 40.68165 35908 ft 505 kts 211°
2026-05-07 16:39 -4.77844 40.64501 35925 ft 504 kts 211°
2026-05-07 16:40 -4.83746 40.60706 35923 ft 504 kts 217°
2026-05-07 16:40 -4.89243 40.56350 35926 ft 503 kts 219°
2026-05-07 16:41 -4.94711 40.51968 35911 ft 503 kts 218°
2026-05-07 16:41 -5.00201 40.47626 35912 ft 503 kts 218°
2026-05-07 16:42 -5.05667 40.43320 35907 ft 503 kts 218°
2026-05-07 16:42 -5.11281 40.39147 35905 ft 502 kts 211°
2026-05-07 16:43 -5.17500 40.35971 35924 ft 501 kts 201°
2026-05-07 16:43 -5.23974 40.33354 35926 ft 502 kts 201°
2026-05-07 16:44 -5.30458 40.30742 35912 ft 502 kts 201°
2026-05-07 16:44 -5.36932 40.28097 35911 ft 503 kts 201°
2026-05-07 16:45 -5.43403 40.25430 35924 ft 503 kts 202°
2026-05-07 16:45 -5.49880 40.22757 35927 ft 503 kts 202°
2026-05-07 16:46 -5.56321 40.20099 35928 ft 503 kts 201°
2026-05-07 16:46 -5.62800 40.17426 35915 ft 503 kts 201°
2026-05-07 16:47 -5.69270 40.14757 35918 ft 503 kts 201°
2026-05-07 16:47 -5.75741 40.12086 35929 ft 502 kts 201°
2026-05-07 16:48 -5.82216 40.09414 35929 ft 502 kts 202°
2026-05-07 16:48 -5.88680 40.06745 35928 ft 502 kts 201°
2026-05-07 16:49 -5.95096 40.04095 35915 ft 502 kts 201°
2026-05-07 16:49 -6.01556 40.01427 35917 ft 502 kts 201°
2026-05-07 16:50 -6.08018 39.98757 35927 ft 502 kts 201°
2026-05-07 16:50 -6.14476 39.96088 35928 ft 502 kts 201°
2026-05-07 16:51 -6.19847 39.93867 35909 ft 502 kts 201°
2026-05-07 16:51 -6.27362 39.90760 35912 ft 502 kts 201°
2026-05-07 16:52 -6.33835 39.88082 35911 ft 502 kts 201°
2026-05-07 16:52 -6.39209 39.85859 35928 ft 502 kts 201°
2026-05-07 16:53 -6.45676 39.83183 35931 ft 502 kts 201°
2026-05-07 16:53 -6.52138 39.80508 35911 ft 502 kts 201°
2026-05-07 16:54 -6.58602 39.77831 35917 ft 502 kts 201°
2026-05-07 16:54 -6.65057 39.75158 35908 ft 502 kts 201°
2026-05-07 16:55 -6.71515 39.72482 35926 ft 502 kts 201°
2026-05-07 16:55 -6.77970 39.69807 35929 ft 501 kts 201°
2026-05-07 16:56 -6.84420 39.67133 35929 ft 501 kts 201°
2026-05-07 16:56 -6.94053 39.63139 35931 ft 501 kts 201°
2026-05-07 16:57 -7.00500 39.60464 35927 ft 501 kts 201°
2026-05-07 16:57 -7.06940 39.57792 35933 ft 501 kts 201°
2026-05-07 16:58 -7.13384 39.55117 35918 ft 500 kts 202°
2026-05-07 16:58 -7.19816 39.52446 35921 ft 500 kts 202°
2026-05-07 16:59 -7.26241 39.49778 35935 ft 499 kts 202°
2026-05-07 16:59 -7.32661 39.47110 35934 ft 499 kts 202°
2026-05-07 17:00 -7.39073 39.44445 35934 ft 499 kts 202°
2026-05-07 17:00 -7.45450 39.41794 35933 ft 499 kts 202°
2026-05-07 17:01 -7.51871 39.39124 35921 ft 499 kts 201°
2026-05-07 17:01 -7.58296 39.36451 35939 ft 499 kts 202°
2026-05-07 17:02 -7.64721 39.33777 35944 ft 499 kts 202°
2026-05-07 17:02 -7.71143 39.31104 35925 ft 499 kts 202°
2026-05-07 17:03 -7.77557 39.28433 35922 ft 498 kts 202°
2026-05-07 17:03 -7.83959 39.25766 35928 ft 498 kts 202°
2026-05-07 17:04 -7.90356 39.23101 35944 ft 497 kts 202°
2026-05-07 17:04 -7.96751 39.20436 35950 ft 496 kts 202°
2026-05-07 17:05 -8.03128 39.17777 35928 ft 495 kts 202°
2026-05-07 17:05 -8.09486 39.15124 35927 ft 494 kts 202°
2026-05-07 17:06 -8.15788 39.12495 35944 ft 493 kts 202°
2026-05-07 17:06 -8.22124 39.09850 35948 ft 492 kts 202°
2026-05-07 17:07 -8.28465 39.07203 35955 ft 492 kts 203°
2026-05-07 17:07 -8.34790 39.04560 35954 ft 492 kts 203°
2026-05-07 17:08 -8.41118 39.01917 35957 ft 492 kts 203°
2026-05-07 17:08 -8.47449 38.99270 35956 ft 492 kts 203°
2026-05-07 17:09 -8.53739 38.96640 35955 ft 492 kts 203°
2026-05-07 17:09 -8.60062 38.93995 35940 ft 492 kts 203°
2026-05-07 17:10 -8.66393 38.91346 35954 ft 492 kts 203°
2026-05-07 17:10 -8.72716 38.88700 35956 ft 492 kts 203°
2026-05-07 17:11 -8.79044 38.86050 35956 ft 491 kts 203°
2026-05-07 17:11 -8.85364 38.83402 35946 ft 492 kts 203°
2026-05-07 17:12 -8.91678 38.80756 35958 ft 491 kts 203°
2026-05-07 17:12 -8.97982 38.78113 35942 ft 490 kts 203°
2026-05-07 17:13 -9.04232 38.75493 35955 ft 489 kts 203°
2026-05-07 17:13 -9.10507 38.72860 35964 ft 488 kts 203°
2026-05-07 17:14 -9.16785 38.70225 35959 ft 488 kts 203°
2026-05-07 17:14 -9.23056 38.67592 35949 ft 488 kts 203°
2026-05-07 17:15 -9.29336 38.64955 35950 ft 488 kts 203°
2026-05-07 17:15 -9.35568 38.62336 35968 ft 488 kts 203°
2026-05-07 17:16 -9.41612 38.59796 35967 ft 488 kts 203°
2026-05-07 17:16 -9.47887 38.57157 35963 ft 488 kts 203°
2026-05-07 17:17 -9.54161 38.54518 35947 ft 488 kts 203°
2026-05-07 17:17 -9.60434 38.51878 35950 ft 488 kts 203°
2026-05-07 17:18 -9.66704 38.49238 35965 ft 487 kts 203°
2026-05-07 17:18 -9.72965 38.46602 35962 ft 487 kts 203°
2026-05-07 17:19 -9.79182 38.43982 35960 ft 487 kts 203°
2026-05-07 17:19 -9.85436 38.41346 35937 ft 486 kts 203°
2026-05-07 17:20 -9.91678 38.38713 35942 ft 486 kts 203°
2026-05-07 17:20 -9.97919 38.36081 35955 ft 485 kts 203°
2026-05-07 17:21 -10.04067 38.33486 35958 ft 485 kts 203°
2026-05-07 17:21 -10.10300 38.30854 35957 ft 485 kts 203°
2026-05-07 17:22 -10.16537 38.28220 35939 ft 486 kts 203°
2026-05-07 17:22 -10.22778 38.25583 35952 ft 486 kts 203°
2026-05-07 17:23 -10.29038 38.22936 35957 ft 487 kts 203°
2026-05-07 17:23 -10.35299 38.20288 35953 ft 487 kts 203°
2026-05-07 17:24 -10.41561 38.17639 35938 ft 488 kts 203°
2026-05-07 17:24 -10.47795 38.15000 35940 ft 488 kts 203°
2026-05-07 17:25 -10.54067 38.12344 35954 ft 488 kts 203°
2026-05-07 17:25 -10.60337 38.09687 35954 ft 488 kts 203°
2026-05-07 17:26 -10.66602 38.07032 35937 ft 488 kts 203°
2026-05-07 17:26 -10.72871 38.04373 35934 ft 488 kts 203°
2026-05-07 17:27 -10.79140 38.01714 35953 ft 488 kts 203°
2026-05-07 17:27 -10.85402 37.99056 35939 ft 488 kts 203°
2026-05-07 17:28 -10.91633 37.96410 35950 ft 488 kts 203°
2026-05-07 17:28 -10.97893 37.93750 35933 ft 488 kts 203°
2026-05-07 17:29 -11.04172 37.91082 35931 ft 488 kts 203°
2026-05-07 17:29 -11.10451 37.88412 35954 ft 489 kts 203°
2026-05-07 17:30 -11.16733 37.85739 35951 ft 489 kts 203°
2026-05-07 17:30 -11.23023 37.83062 35947 ft 490 kts 203°
2026-05-07 17:31 -11.29313 37.80383 35935 ft 490 kts 203°
2026-05-07 17:31 -11.35607 37.77702 35952 ft 490 kts 204°
2026-05-07 17:32 -11.41862 37.75036 35950 ft 490 kts 204°
2026-05-07 17:32 -11.47138 37.72786 35936 ft 490 kts 204°
2026-05-07 17:33 -11.54441 37.69669 35938 ft 489 kts 204°
2026-05-07 17:33 -11.60716 37.66990 35955 ft 489 kts 204°
2026-05-07 17:34 -11.67067 37.64513 35961 ft 488 kts 200°
2026-05-07 17:34 -11.73520 37.62337 35942 ft 488 kts 199°
2026-05-07 17:35 -11.79935 37.60192 35946 ft 488 kts 199°
2026-05-07 17:35 -11.86424 37.57995 35959 ft 488 kts 200°
2026-05-07 17:36 -11.92809 37.55817 35964 ft 488 kts 200°
2026-05-07 17:36 -11.99259 37.53614 35966 ft 488 kts 200°
2026-05-07 17:37 -12.05709 37.51410 35954 ft 488 kts 200°
2026-05-07 17:37 -12.12149 37.49210 35955 ft 488 kts 200°
2026-05-07 17:38 -12.18587 37.47009 35968 ft 488 kts 200°
2026-05-07 17:38 -12.25039 37.44803 35956 ft 488 kts 200°
2026-05-07 17:39 -12.31489 37.42596 35956 ft 489 kts 200°
2026-05-07 17:39 -12.37933 37.40389 35957 ft 489 kts 200°
2026-05-07 17:40 -12.44382 37.38180 35967 ft 488 kts 200°
2026-05-07 17:40 -12.49740 37.36344 35951 ft 489 kts 200°
2026-05-07 17:41 -12.56198 37.34130 35973 ft 488 kts 200°
2026-05-07 17:41 -12.62640 37.31920 35960 ft 488 kts 200°
2026-05-07 17:42 -12.69081 37.29708 35958 ft 488 kts 200°
2026-05-07 17:42 -12.75519 37.27497 35975 ft 488 kts 200°
2026-05-07 17:43 -12.81951 37.25287 35965 ft 488 kts 200°
2026-05-07 17:43 -12.88360 37.23133 35978 ft 488 kts 200°
2026-05-07 17:44 -12.94823 37.21003 35974 ft 487 kts 200°
2026-05-07 17:44 -13.01277 37.18871 35978 ft 487 kts 200°
2026-05-07 17:45 -13.07725 37.16731 35991 ft 487 kts 200°
2026-05-07 17:45 -13.14164 37.14590 35978 ft 486 kts 200°
2026-05-07 17:46 -13.20604 37.12448 35981 ft 486 kts 200°
2026-05-07 17:46 -13.27039 37.10306 35984 ft 486 kts 200°
2026-05-07 17:47 -13.33469 37.08165 36008 ft 485 kts 200°
2026-05-07 17:47 -13.39898 37.06023 35992 ft 485 kts 200°
2026-05-07 17:48 -13.46318 37.03883 36015 ft 485 kts 200°
2026-05-07 17:48 -13.52697 37.01755 35995 ft 485 kts 200°
2026-05-07 17:49 -13.59115 36.99613 36003 ft 485 kts 200°
2026-05-07 17:49 -13.65525 36.97473 35999 ft 485 kts 200°
2026-05-07 17:50 -13.71944 36.95328 36001 ft 485 kts 200°
2026-05-07 17:50 -13.78358 36.93184 36004 ft 484 kts 201°
2026-05-07 17:51 -13.84771 36.91038 35998 ft 484 kts 201°
2026-05-07 17:51 -13.91176 36.88894 35996 ft 484 kts 201°
2026-05-07 17:52 -13.97579 36.86750 35990 ft 484 kts 201°
2026-05-07 17:52 -14.03989 36.84604 35991 ft 485 kts 200°
2026-05-07 17:53 -14.10413 36.82486 36003 ft 490 kts 200°
2026-05-07 17:53 -14.16915 36.80353 35992 ft 491 kts 200°
2026-05-07 17:54 -14.23425 36.78213 35991 ft 490 kts 200°
2026-05-07 17:54 -14.29921 36.76072 35987 ft 490 kts 200°
2026-05-07 17:55 -14.36412 36.73930 35986 ft 489 kts 200°
2026-05-07 17:55 -14.42888 36.71792 35985 ft 488 kts 200°
2026-05-07 17:56 -14.49330 36.69663 35990 ft 487 kts 200°
2026-05-07 17:56 -14.55777 36.67532 35992 ft 486 kts 200°
2026-05-07 17:57 -14.61132 36.65761 35990 ft 486 kts 200°
2026-05-07 17:57 -14.68652 36.63272 35991 ft 485 kts 200°
2026-05-07 17:58 -14.75088 36.61140 35995 ft 485 kts 200°
2026-05-07 17:58 -14.81524 36.59007 35992 ft 486 kts 200°
2026-05-07 17:59 -14.87961 36.56873 35995 ft 486 kts 200°
2026-05-07 17:59 -14.94396 36.54738 35987 ft 486 kts 200°
2026-05-07 18:00 -15.00793 36.52614 36001 ft 486 kts 200°
2026-05-07 18:00 -15.07228 36.50476 35998 ft 486 kts 200°
2026-05-07 18:01 -15.13669 36.48335 35999 ft 486 kts 201°
2026-05-07 18:01 -15.20107 36.46193 35993 ft 486 kts 201°
2026-05-07 18:02 -15.29767 36.42977 35996 ft 486 kts 201°
2026-05-07 18:03 -15.36200 36.40834 35997 ft 485 kts 201°
2026-05-07 18:03 -15.42633 36.38689 36002 ft 485 kts 201°
2026-05-07 18:04 -15.49061 36.36544 35999 ft 486 kts 201°
2026-05-07 18:04 -15.55465 36.34406 36001 ft 486 kts 201°
2026-05-07 18:05 -15.61899 36.32257 36001 ft 486 kts 201°
2026-05-07 18:05 -15.68332 36.30106 35997 ft 486 kts 201°
2026-05-07 18:06 -15.74773 36.27952 35993 ft 486 kts 201°
2026-05-07 18:06 -15.81214 36.25795 35994 ft 486 kts 201°
2026-05-07 18:07 -15.87655 36.23638 35993 ft 487 kts 201°
2026-05-07 18:07 -15.94104 36.21476 36001 ft 486 kts 201°
2026-05-07 18:08 -16.00544 36.19311 35988 ft 486 kts 202°
2026-05-07 18:08 -16.06973 36.17115 35983 ft 486 kts 202°
2026-05-07 18:09 -16.13394 36.14909 35979 ft 486 kts 202°
2026-05-07 18:09 -16.19769 36.12719 35979 ft 486 kts 202°
2026-05-07 18:10 -16.26190 36.10516 35967 ft 485 kts 202°
2026-05-07 18:10 -16.32601 36.08316 35966 ft 485 kts 202°
2026-05-07 18:11 -16.39009 36.06115 35965 ft 485 kts 202°
2026-05-07 18:11 -16.45415 36.03913 35964 ft 485 kts 202°
2026-05-07 18:12 -16.51825 36.01708 35951 ft 485 kts 202°
2026-05-07 18:12 -16.58235 35.99502 35956 ft 485 kts 203°
2026-05-07 18:13 -16.64597 35.97311 35947 ft 484 kts 203°
2026-05-07 18:13 -16.70997 35.95105 35950 ft 484 kts 203°
2026-05-07 18:14 -16.77395 35.92898 35948 ft 484 kts 203°
2026-05-07 18:14 -16.83787 35.90691 35953 ft 484 kts 203°
2026-05-07 18:15 -16.90176 35.88484 35946 ft 484 kts 203°
2026-05-07 18:15 -16.96521 35.86291 35946 ft 483 kts 203°
2026-05-07 18:16 -17.02900 35.84085 35944 ft 483 kts 203°
2026-05-07 18:16 -17.09288 35.81874 35947 ft 483 kts 203°
2026-05-07 18:17 -17.15666 35.79664 35956 ft 483 kts 203°
2026-05-07 18:17 -17.22043 35.77453 35951 ft 483 kts 204°
2026-05-07 18:18 -17.28422 35.75240 35948 ft 483 kts 204°
2026-05-07 18:18 -17.34757 35.73040 35944 ft 482 kts 204°
2026-05-07 18:19 -17.41128 35.70827 35947 ft 482 kts 204°
2026-05-07 18:19 -17.47496 35.68612 35951 ft 482 kts 204°
2026-05-07 18:20 -17.53863 35.66397 35943 ft 482 kts 204°
2026-05-07 18:20 -17.60215 35.64185 35938 ft 481 kts 204°
2026-05-07 18:21 -17.66568 35.61971 35940 ft 481 kts 204°
2026-05-07 18:21 -17.72916 35.59755 35936 ft 481 kts 204°
2026-05-07 18:22 -17.79268 35.57537 35947 ft 480 kts 204°
2026-05-07 18:22 -17.85611 35.55320 35935 ft 480 kts 204°
2026-05-07 18:23 -17.91949 35.53104 35943 ft 480 kts 204°
2026-05-07 18:23 -17.98284 35.50886 35941 ft 480 kts 204°
2026-05-07 18:24 -18.04618 35.48668 35962 ft 479 kts 205°
2026-05-07 18:24 -18.10911 35.46462 35937 ft 479 kts 205°
2026-05-07 18:25 -18.17235 35.44244 35945 ft 479 kts 205°
2026-05-07 18:25 -18.23547 35.42028 35941 ft 478 kts 205°
2026-05-07 18:26 -18.29859 35.39810 35946 ft 478 kts 205°
2026-05-07 18:26 -18.36165 35.37593 35960 ft 477 kts 205°
2026-05-07 18:27 -18.42476 35.35371 35960 ft 477 kts 205°
2026-05-07 18:27 -18.48736 35.33167 35951 ft 478 kts 205°
2026-05-07 18:28 -18.55040 35.30944 35955 ft 478 kts 205°
2026-05-07 18:28 -18.61346 35.28721 35950 ft 478 kts 205°
2026-05-07 18:29 -18.67659 35.26498 35965 ft 479 kts 205°
2026-05-07 18:29 -18.73979 35.24272 35963 ft 479 kts 205°
2026-05-07 18:30 -18.79281 35.22403 35967 ft 479 kts 205°
2026-05-07 18:30 -18.85571 35.20183 35970 ft 479 kts 205°
2026-05-07 18:31 -18.91902 35.17947 35969 ft 480 kts 205°
2026-05-07 18:31 -18.98238 35.15707 35977 ft 480 kts 205°
2026-05-07 18:32 -19.04576 35.13464 35969 ft 480 kts 205°
2026-05-07 18:32 -19.10916 35.11220 35966 ft 480 kts 205°
2026-05-07 18:33 -19.17258 35.08972 35967 ft 480 kts 205°
2026-05-07 18:33 -19.23590 35.06727 35967 ft 480 kts 205°
2026-05-07 18:34 -19.29927 35.04477 35974 ft 480 kts 206°
2026-05-07 18:34 -19.36269 35.02223 35972 ft 481 kts 206°
2026-05-07 18:35 -19.42614 34.99967 35973 ft 481 kts 206°
2026-05-07 18:35 -19.48955 34.97711 35972 ft 481 kts 206°
2026-05-07 18:36 -19.55261 34.95466 35965 ft 481 kts 206°
2026-05-07 18:36 -19.61619 34.93199 35968 ft 482 kts 206°
2026-05-07 18:37 -19.67982 34.90929 35968 ft 483 kts 206°
2026-05-07 18:37 -19.74343 34.88622 35941 ft 481 kts 209°
2026-05-07 18:38 -19.80158 34.85359 35951 ft 469 kts 220°
2026-05-07 18:38 -19.85221 34.81110 35946 ft 461 kts 228°
2026-05-07 18:39 -19.89993 34.76558 35945 ft 462 kts 228°
2026-05-07 18:39 -19.94786 34.71989 35958 ft 463 kts 228°
2026-05-07 18:40 -19.99608 34.67428 35966 ft 465 kts 228°
2026-05-07 18:40 -20.04412 34.62898 35970 ft 465 kts 228°
2026-05-07 18:41 -20.09246 34.58339 35970 ft 465 kts 228°
2026-05-07 18:41 -20.14074 34.53780 35970 ft 465 kts 228°
2026-05-07 18:42 -20.18907 34.49211 35969 ft 465 kts 228°
2026-05-07 18:42 -20.23740 34.44638 35980 ft 465 kts 228°
2026-05-07 18:43 -20.28579 34.40054 35983 ft 466 kts 228°
2026-05-07 18:43 -20.33427 34.35458 35974 ft 466 kts 228°
2026-05-07 18:44 -20.38275 34.30859 35978 ft 467 kts 228°
2026-05-07 18:44 -20.43123 34.26255 35979 ft 467 kts 228°
2026-05-07 18:45 -20.47974 34.21644 35976 ft 467 kts 228°
2026-05-07 18:45 -20.52826 34.17029 35985 ft 467 kts 228°
2026-05-07 18:46 -20.57642 34.12444 36005 ft 467 kts 228°
2026-05-07 18:46 -20.62489 34.07824 35994 ft 468 kts 228°
2026-05-07 18:47 -20.67343 34.03192 35985 ft 468 kts 228°
2026-05-07 18:47 -20.72216 33.98558 35990 ft 469 kts 227°
2026-05-07 18:48 -20.77268 33.94102 36006 ft 472 kts 225°
2026-05-07 18:48 -20.82390 33.89709 35994 ft 472 kts 225°
2026-05-07 18:49 -20.87492 33.85293 35989 ft 472 kts 225°
2026-05-07 18:49 -20.92577 33.80850 36001 ft 471 kts 225°
2026-05-07 18:50 -20.97650 33.76401 35989 ft 472 kts 225°
2026-05-07 18:50 -21.02732 33.71941 35991 ft 472 kts 225°
2026-05-07 18:51 -21.07784 33.67505 36005 ft 473 kts 225°
2026-05-07 18:51 -21.12869 33.63037 35993 ft 472 kts 225°
2026-05-07 18:52 -21.17949 33.58570 35988 ft 472 kts 225°
2026-05-07 18:52 -21.23024 33.54103 35991 ft 471 kts 225°
2026-05-07 18:53 -21.28087 33.49641 36010 ft 471 kts 225°
2026-05-07 18:53 -21.33155 33.45171 35990 ft 472 kts 225°
2026-05-07 18:54 -21.38230 33.40690 35999 ft 473 kts 225°
2026-05-07 18:54 -21.43283 33.36225 35986 ft 473 kts 225°
2026-05-07 18:55 -21.48374 33.31723 35981 ft 474 kts 225°
2026-05-07 18:55 -21.53466 33.27215 35998 ft 474 kts 225°
2026-05-07 18:56 -21.58562 33.22700 35985 ft 475 kts 225°
2026-05-07 18:56 -21.63660 33.18178 35983 ft 475 kts 225°
2026-05-07 18:57 -21.68738 33.13670 35999 ft 474 kts 225°
2026-05-07 18:57 -21.73821 33.09153 35987 ft 474 kts 225°
2026-05-07 18:58 -21.78860 33.04667 35987 ft 473 kts 226°
2026-05-07 18:58 -21.83922 33.00093 35986 ft 472 kts 226°
2026-05-07 18:59 -21.88907 32.95566 35991 ft 471 kts 226°
2026-05-07 18:59 -21.93920 32.91017 35988 ft 471 kts 226°
2026-05-07 19:00 -21.98932 32.86468 36000 ft 471 kts 226°
2026-05-07 19:00 -22.03950 32.81912 35995 ft 471 kts 226°
2026-05-07 19:01 -22.08992 32.77391 35992 ft 472 kts 225°
2026-05-07 19:01 -22.14064 32.72899 35988 ft 472 kts 225°
2026-05-07 19:02 -22.19135 32.68399 35989 ft 472 kts 225°
2026-05-07 19:02 -22.24196 32.63893 35987 ft 472 kts 225°
2026-05-07 19:03 -22.29254 32.59381 36003 ft 471 kts 225°
2026-05-07 19:03 -22.34311 32.54866 36001 ft 471 kts 225°
2026-05-07 19:04 -22.39366 32.50348 35984 ft 471 kts 225°
2026-05-07 19:04 -22.44379 32.45863 35982 ft 471 kts 225°
2026-05-07 19:05 -22.49453 32.41321 35987 ft 470 kts 225°
2026-05-07 19:05 -22.54458 32.36834 35983 ft 470 kts 225°
2026-05-07 19:06 -22.59494 32.32315 35996 ft 470 kts 225°
2026-05-07 19:06 -22.67037 32.25539 35992 ft 469 kts 226°
2026-05-07 19:07 -22.72061 32.21021 35984 ft 469 kts 226°
2026-05-07 19:07 -22.77083 32.16499 35985 ft 469 kts 226°
2026-05-07 19:08 -22.82103 32.11975 35981 ft 468 kts 226°
2026-05-07 19:08 -22.87111 32.07457 35982 ft 468 kts 226°
2026-05-07 19:09 -22.91821 32.02713 35987 ft 460 kts 234°
2026-05-07 19:09 -22.95980 31.97451 35982 ft 459 kts 235°
2026-05-07 19:10 -23.00131 31.92200 36013 ft 458 kts 235°
2026-05-07 19:10 -23.04295 31.86963 35990 ft 458 kts 235°
2026-05-07 19:11 -23.08468 31.81731 36008 ft 458 kts 235°
2026-05-07 19:11 -23.12640 31.76499 36006 ft 457 kts 235°
2026-05-07 19:12 -23.16773 31.71309 36006 ft 457 kts 235°
2026-05-07 19:12 -23.20921 31.66095 36003 ft 456 kts 235°
2026-05-07 19:13 -23.25067 31.60878 36013 ft 455 kts 235°
2026-05-07 19:13 -23.29205 31.55665 36008 ft 455 kts 235°
2026-05-07 19:14 -23.33341 31.50448 36022 ft 455 kts 235°
2026-05-07 19:14 -23.37472 31.45233 36012 ft 455 kts 235°
2026-05-07 19:15 -23.41602 31.40014 36024 ft 454 kts 235°
2026-05-07 19:15 -23.45723 31.34801 36024 ft 454 kts 235°
2026-05-07 19:16 -23.49146 31.30467 36020 ft 454 kts 235°
2026-05-07 19:16 -23.53260 31.25253 36025 ft 454 kts 235°
2026-05-07 19:17 -23.58033 31.19195 36024 ft 453 kts 236°
2026-05-07 19:17 -23.62130 31.13991 36022 ft 452 kts 236°
2026-05-07 19:18 -23.65552 31.09641 36029 ft 450 kts 236°
2026-05-07 19:18 -23.69628 31.04453 36036 ft 449 kts 236°
2026-05-07 19:19 -23.73689 30.99278 36035 ft 449 kts 236°
2026-05-07 19:19 -23.77720 30.94137 36053 ft 449 kts 236°
2026-05-07 19:20 -23.81779 30.88954 36056 ft 449 kts 236°
2026-05-07 19:20 -23.85833 30.83774 36043 ft 448 kts 236°
2026-05-07 19:21 -23.89882 30.78592 36053 ft 448 kts 236°
2026-05-07 19:21 -23.93926 30.73411 36059 ft 448 kts 236°
2026-05-07 19:22 -23.97969 30.68227 36063 ft 448 kts 236°
2026-05-07 19:22 -24.02015 30.63034 36062 ft 448 kts 236°
2026-05-07 19:23 -24.06033 30.57871 36076 ft 448 kts 236°
2026-05-07 19:23 -24.10080 30.52666 36077 ft 449 kts 236°
2026-05-07 19:24 -24.14125 30.47457 36121 ft 449 kts 236°
2026-05-07 19:24 -24.18172 30.42241 36104 ft 448 kts 236°
2026-05-07 19:25 -24.22205 30.37037 36103 ft 448 kts 236°
2026-05-07 19:25 -24.26219 30.31859 36133 ft 443 kts 237°
2026-05-07 19:26 -24.30211 30.26695 36126 ft 443 kts 237°
2026-05-07 19:26 -24.34195 30.21532 36121 ft 444 kts 237°
2026-05-07 19:27 -24.38152 30.16402 36128 ft 444 kts 237°
2026-05-07 19:27 -24.42139 30.11228 36139 ft 444 kts 237°
2026-05-07 19:28 -24.46129 30.06047 36140 ft 444 kts 237°
2026-05-07 19:28 -24.50111 30.00872 36136 ft 444 kts 237°
2026-05-07 19:29 -24.54087 29.95703 36163 ft 442 kts 237°
2026-05-07 19:29 -24.58055 29.90531 36157 ft 443 kts 237°
2026-05-07 19:30 -24.62025 29.85349 36149 ft 443 kts 237°
2026-05-07 19:30 -24.65992 29.80169 36168 ft 443 kts 237°
2026-05-07 19:31 -24.69962 29.74978 36159 ft 443 kts 237°
2026-05-07 19:31 -24.73925 29.69795 35806 ft 443 kts 237°
2026-05-07 19:32 -24.75911 29.67193 35401 ft 441 kts 237°
2026-05-07 19:32 -24.77873 29.64627 34987 ft 436 kts 237°
2026-05-07 19:32 -24.79820 29.62078 34521 ft 431 kts 237°
2026-05-07 19:32 -24.81740 29.59564 34028 ft 426 kts 237°
2026-05-07 19:33 -24.83643 29.57068 33376 ft 424 kts 237°
2026-05-07 19:33 -24.85532 29.54585 32741 ft 422 kts 237°
2026-05-07 19:33 -24.87412 29.52113 32139 ft 420 kts 237°
2026-05-07 19:33 -24.89281 29.49655 31564 ft 418 kts 237°
2026-05-07 19:34 -24.91121 29.47234 30989 ft 416 kts 237°
2026-05-07 19:34 -24.92994 29.44769 30463 ft 412 kts 237°
2026-05-07 19:34 -24.94804 29.42387 29887 ft 409 kts 237°
2026-05-07 19:34 -24.96624 29.39990 29269 ft 406 kts 237°
2026-05-07 19:35 -24.98423 29.37620 28653 ft 402 kts 237°
2026-05-07 19:35 -25.00212 29.35262 28078 ft 399 kts 237°
2026-05-07 19:35 -25.01986 29.32922 27492 ft 396 kts 237°
2026-05-07 19:35 -25.03743 29.30602 26908 ft 393 kts 237°
2026-05-07 19:36 -25.05488 29.28299 26372 ft 390 kts 237°
2026-05-07 19:36 -25.07224 29.26005 25829 ft 387 kts 237°
2026-05-07 19:36 -25.08944 29.23730 25316 ft 385 kts 237°
2026-05-07 19:36 -25.10654 29.21467 24792 ft 382 kts 237°
2026-05-07 19:37 -25.12352 29.19220 24278 ft 380 kts 236°
2026-05-07 19:37 -25.14039 29.16986 23770 ft 378 kts 236°
2026-05-07 19:37 -25.15720 29.14759 23178 ft 376 kts 236°
2026-05-07 19:37 -25.17394 29.12540 22571 ft 375 kts 236°
2026-05-07 19:38 -25.19057 29.10335 21996 ft 373 kts 236°
2026-05-07 19:38 -25.20714 29.08138 21425 ft 372 kts 236°
2026-05-07 19:38 -25.22344 29.05974 20863 ft 370 kts 236°
2026-05-07 19:38 -25.23989 29.03790 20322 ft 367 kts 235°
2026-05-07 19:39 -25.25577 29.01689 19686 ft 346 kts 235°
2026-05-07 19:39 -25.27125 28.99633 19135 ft 351 kts 235°
2026-05-07 19:39 -25.28693 28.97543 18574 ft 354 kts 235°
2026-05-07 19:39 -25.30270 28.95442 17964 ft 356 kts 234°
2026-05-07 19:40 -25.31852 28.93334 17330 ft 357 kts 234°
2026-05-07 19:40 -25.33439 28.91222 16708 ft 357 kts 234°
2026-05-07 19:40 -25.35093 28.89176 16094 ft 359 kts 227°
2026-05-07 19:40 -25.36963 28.87442 15474 ft 341 kts 222°
2026-05-07 19:41 -25.38825 28.85913 14898 ft 330 kts 221°
2026-05-07 19:41 -25.40691 28.84422 14449 ft 331 kts 221°
2026-05-07 19:41 -25.42562 28.82933 13995 ft 331 kts 220°
2026-05-07 19:41 -25.44430 28.81446 13490 ft 331 kts 220°
2026-05-07 19:42 -25.46289 28.79959 13053 ft 328 kts 220°
2026-05-07 19:42 -25.48121 28.78482 12681 ft 323 kts 220°
2026-05-07 19:42 -25.49846 28.77085 12268 ft 300 kts 220°
2026-05-07 19:42 -25.51472 28.75765 11869 ft 281 kts 220°
2026-05-07 19:43 -25.53046 28.74475 11533 ft 281 kts 220°
2026-05-07 19:43 -25.54610 28.73175 11179 ft 280 kts 220°
2026-05-07 19:43 -25.56154 28.71876 10923 ft 276 kts 220°
2026-05-07 19:43 -25.57667 28.70588 10679 ft 273 kts 220°
2026-05-07 19:44 -25.59166 28.69302 10450 ft 271 kts 220°
2026-05-07 19:44 -25.60645 28.68021 10214 ft 269 kts 220°
2026-05-07 19:44 -25.62108 28.66739 9961 ft 267 kts 220°
2026-05-07 19:44 -25.63559 28.65458 9704 ft 266 kts 220°
2026-05-07 19:45 -25.65004 28.64184 9446 ft 265 kts 220°
2026-05-07 19:45 -25.66440 28.62915 9198 ft 264 kts 220°
2026-05-07 19:45 -25.67873 28.61642 8934 ft 263 kts 220°
2026-05-07 19:45 -25.69295 28.60369 8682 ft 262 kts 220°
2026-05-07 19:46 -25.70712 28.59096 8434 ft 262 kts 220°
2026-05-07 19:46 -25.72125 28.57820 8184 ft 262 kts 220°
2026-05-07 19:46 -25.73529 28.56544 8068 ft 259 kts 220°
2026-05-07 19:46 -25.74919 28.55274 8039 ft 260 kts 220°
2026-05-07 19:47 -25.76324 28.53988 8017 ft 263 kts 220°
2026-05-07 19:47 -25.77738 28.52693 8015 ft 264 kts 220°
2026-05-07 19:47 -25.79133 28.51414 8014 ft 264 kts 220°
2026-05-07 19:47 -25.80549 28.50118 8012 ft 264 kts 220°
2026-05-07 19:48 -25.81963 28.48825 8014 ft 264 kts 220°
2026-05-07 19:48 -25.83380 28.47532 8015 ft 264 kts 220°
2026-05-07 19:48 -25.84802 28.46236 8014 ft 264 kts 220°
2026-05-07 19:48 -25.86221 28.44941 8012 ft 264 kts 220°
2026-05-07 19:49 -25.87638 28.43648 8013 ft 263 kts 220°
2026-05-07 19:49 -25.89052 28.42359 8015 ft 263 kts 220°
2026-05-07 19:49 -25.90462 28.41072 8020 ft 262 kts 220°
2026-05-07 19:49 -25.91874 28.39785 8020 ft 262 kts 220°
2026-05-07 19:50 -25.93288 28.38500 8020 ft 263 kts 220°
2026-05-07 19:50 -25.94702 28.37214 8015 ft 263 kts 220°
2026-05-07 19:50 -25.96095 28.35950 8000 ft 252 kts 220°
2026-05-07 19:50 -25.97392 28.34728 7994 ft 236 kts 225°
2026-05-07 19:51 -25.98470 28.33398 8040 ft 231 kts 229°
2026-05-07 19:51 -25.99486 28.32042 8019 ft 223 kts 229°
2026-05-07 19:51 -26.00441 28.30758 8003 ft 207 kts 229°
2026-05-07 19:51 -26.01503 28.29801 8009 ft 195 kts 205°
2026-05-07 19:52 -26.02772 28.29230 7749 ft 203 kts 204°
2026-05-07 19:52 -26.04083 28.28675 7481 ft 195 kts 200°
2026-05-07 19:52 -26.05339 28.28261 7240 ft 186 kts 197°
2026-05-07 19:52 -26.06559 28.27886 7021 ft 175 kts 197°
2026-05-07 19:53 -26.07700 28.27533 6784 ft 163 kts 197°
2026-05-07 19:53 -26.08742 28.27210 6568 ft 148 kts 197°
2026-05-07 19:53 -26.09695 28.26915 6406 ft 143 kts 196°
2026-05-07 19:53 -26.10643 28.26640 6178 ft 139 kts 195°
2026-05-07 19:54 -26.11571 28.26351 5936 ft 140 kts 196°
2026-05-07 19:54 -26.12504 28.26046 5724 ft 140 kts 195°
2026-05-07 19:54 -26.13428 28.25761 5560 ft 135 kts 195°
2026-05-07 19:54 -26.14282 28.25495 5516 ft 112 kts 195°
2026-05-07 19:55 -26.14885 28.25309 5513 ft 68 kts 195°
2026-05-07 19:55 -26.15269 28.25190 5519 ft 53 kts 196°
2026-05-07 19:55 -26.15518 28.25110 5521 ft 15 kts 197°
2026-05-07 19:55 -26.15585 28.25079 5522 ft 10 kts 218°
2026-05-07 19:56 -26.15591 28.25002 5520 ft 11 kts 281°
2026-05-07 19:56 -26.15571 28.24929 5518 ft 8 kts 303°
2026-05-07 19:56 -26.15522 28.24908 5518 ft 8 kts
2026-05-07 19:56 -26.15468 28.24919 5519 ft 8 kts 13°
2026-05-07 19:57 -26.15414 28.24934 5519 ft 8 kts 14°
2026-05-07 19:57 -26.15360 28.24949 5519 ft 8 kts 13°
2026-05-07 19:57 -26.15306 28.24964 5519 ft 8 kts 13°
2026-05-07 19:57 -26.15252 28.24980 5519 ft 8 kts 15°
2026-05-07 19:58 -26.15197 28.24998 5520 ft 10 kts 16°
2026-05-07 19:58 -26.15104 28.25027 5520 ft 15 kts 16°
2026-05-07 19:58 -26.15002 28.25060 5517 ft 16 kts 16°
2026-05-07 19:58 -26.14892 28.25095 5515 ft 17 kts 15°
2026-05-07 19:59 -26.14780 28.25128 5516 ft 17 kts 15°
2026-05-07 19:59 -26.14669 28.25164 5515 ft 17 kts 15°
2026-05-07 19:59 -26.14560 28.25198 5514 ft 13 kts 15°
2026-05-07 19:59 -26.14491 28.25207 5515 ft 10 kts 348°
2026-05-07 20:00 -26.14434 28.25167 5517 ft 10 kts 315°
2026-05-07 20:00 -26.14365 28.25092 5525 ft 21 kts 315°
2026-05-07 20:00 -26.14259 28.24975 5536 ft 22 kts 316°
2026-05-07 20:00 -26.14152 28.24859 5536 ft 22 kts 315°
2026-05-07 20:01 -26.14045 28.24742 5536 ft 22 kts 315°
2026-05-07 20:01 -26.13938 28.24626 5536 ft 22 kts 315°
2026-05-07 20:01 -26.13831 28.24510 5545 ft 22 kts 316°
2026-05-07 20:01 -26.13723 28.24394 5549 ft 22 kts 316°
2026-05-07 20:02 -26.13616 28.24277 5548 ft 22 kts 315°
2026-05-07 20:02 -26.13509 28.24161 5550 ft 21 kts 316°
2026-05-07 20:02 -26.13419 28.24065 5558 ft 18 kts 316°
2026-05-07 20:02 -26.13331 28.23970 5555 ft 17 kts 316°
2026-05-07 20:03 -26.13251 28.23883 5555 ft 16 kts 315°
2026-05-07 20:03 -26.13174 28.23799 5555 ft 16 kts 315°
2026-05-07 20:03 -26.13110 28.23735 5552 ft 12 kts 330°
2026-05-07 20:03 -26.13031 28.23732 5553 ft 12 kts 11°
2026-05-07 20:04 -26.12953 28.23754 5554 ft 12 kts 15°
2026-05-07 20:04 -26.12877 28.23775 5553 ft 10 kts
2026-05-07 20:04 -26.12834 28.23724 5555 ft 10 kts 281°
2026-05-07 20:04 -26.12825 28.23646 5552 ft 10 kts 276°
2026-05-07 20:05 -26.12822 28.23608 5552 ft 0 kts 269°
2026-05-07 20:05 -26.12824 28.23604 5553 ft 3 kts 250°
2026-05-07 20:05 -26.12843 28.23592 5555 ft 3 kts 202°
2026-05-07 20:05 -26.12864 28.23584 5555 ft 3 kts 194°
2026-05-07 20:06 -26.12886 28.23580 5554 ft 3 kts 187°
2026-05-07 20:06 -26.12907 28.23578 5556 ft 2 kts 187°
2026-05-07 20:06 -26.12919 28.23576 5554 ft 0 kts 186°
2026-05-07 20:06 -26.12920 28.23576 5554 ft 0 kts 186°